Cleveland, OH

11:08 AM EST on February 07, 2016 (GMT -0500)
Burke Lakefront

Weather History for KBKL - February, 2013

Change the Weather History Date:

Friday, February 22, 2013

  Actual Average Record
Temperature  
Mean Temperature 29 °F -  
Max Temperature 39 °F 38 °F 54 °F (2012)
Min Temperature 19 °F 26 °F 6 °F (2015)
Degree Days  
Heating Degree Days 36    
Moisture  
Dew Point 27 °F    
Average Humidity 79    
Maximum Humidity 93    
Minimum Humidity 63    
Precipitation  
Precipitation 0.05 in - - ()
Sea Level Pressure  
Sea Level Pressure 29.99 in    
Wind  
Wind Speed 11 mph (SSE)    
Max Wind Speed 22 mph    
Max Gust Speed 28 mph    
Visibility 9 miles    
Events Rain    
Averages and records for this station are not official NWS values.
T = Trace of Precipitation, MM = Missing Value Source: NWS Daily Summary

Daily Weather History Graph

Daily Weather History Graph

Search for Another Location

Airport or City:

Trip Planner

Search our weather history database for the weather conditions in past years. The results will help you decide how hot, cold, wet, or windy it might be!

Date:

Astronomy

Feb. 22, 2013 Rise Set
Actual Time 7:11 AM EST 6:09 PM EST
Civil Twilight 6:43 AM EST 6:37 PM EST
Nautical Twilight 6:11 AM EST 7:09 PM EST
Astronomical Twilight 5:39 AM EST 7:41 PM EST
Moon 3:18 PM EST (2/22) 4:57 AM EST (2/22)
Length of Visible Light 11h 53m
Length of Day
10h 57m
Waxing Gibbous, 90% of the Moon is Illuminated
Feb 22
Waxing Gibbous
Feb 25
Full
Mar 4
Last Quarter
Mar 11
New
Mar 19
First Quarter

Hourly Weather History & Observations

Time (EST) Temp. Windchill Dew Point Humidity Pressure Visibility Wind Dir Wind Speed Gust Speed Precip Events Conditions
12:53 AM 19.9 °F 12.1 °F 12.9 °F 74% 30.32 in 10.0 mi ESE 5.8 mph - N/A   Clear
1:53 AM 21.0 °F 12.4 °F 14.0 °F 74% 30.29 in 10.0 mi East 6.9 mph - N/A   Clear
3:53 AM 21.9 °F 13.4 °F 12.9 °F 68% 30.22 in 10.0 mi East 6.9 mph - N/A   Partly Cloudy
4:53 AM 23.0 °F 13.9 °F 14.0 °F 68% 30.14 in 10.0 mi East 8.1 mph - N/A   Scattered Clouds
5:53 AM 25.0 °F 16.3 °F 14.0 °F 63% 30.12 in 10.0 mi ESE 8.1 mph 16.1 mph N/A   Overcast
6:53 AM 26.1 °F 15.6 °F 15.1 °F 63% 30.09 in 10.0 mi SE 11.5 mph 21.9 mph 0.00 in   Overcast
7:53 AM 27.0 °F 16.7 °F 21.0 °F 78% 30.05 in 6.0 mi ESE 11.5 mph 19.6 mph 0.00 in   Light Freezing Drizzle
8:53 AM 28.0 °F 19.3 °F 21.0 °F 75% 30.01 in 10.0 mi SE 9.2 mph 19.6 mph 0.00 in   Overcast
9:18 AM 28.4 °F 17.0 °F 21.2 °F 74% 29.97 in 7.0 mi SE 15.0 mph 25.3 mph 0.00 in Rain Light Freezing Rain
9:40 AM 28.4 °F 17.5 °F 21.2 °F 74% 29.97 in 10.0 mi SE 13.8 mph 23.0 mph 0.00 in   Overcast
9:53 AM 30.0 °F 19.5 °F 21.9 °F 72% 29.99 in 10.0 mi SSE 13.8 mph 25.3 mph 0.00 in   Overcast
10:03 AM 30.2 °F 20.2 °F 21.2 °F 69% 29.95 in 7.0 mi SSE 12.7 mph - 0.00 in Rain Light Freezing Rain
10:33 AM 30.2 °F 17.1 °F 24.8 °F 80% 29.97 in 10.0 mi SE 21.9 mph 27.6 mph 0.00 in Rain Light Freezing Rain
10:36 AM 30.2 °F 18.1 °F 24.8 °F 80% 29.96 in 8.0 mi SE 18.4 mph 27.6 mph 0.00 in   Overcast
10:44 AM 30.2 °F 20.8 °F 24.8 °F 80% 29.96 in 4.0 mi SSW 11.5 mph 25.3 mph 0.00 in   Overcast
11:53 AM 30.9 °F 18.4 °F 26.1 °F 82% 29.97 in 10.0 mi SSE 20.7 mph 27.6 mph N/A   Overcast
12:53 PM 33.1 °F 21.9 °F 28.9 °F 85% 29.96 in 10.0 mi SSE 18.4 mph - 0.05 in   Overcast
1:11 PM 33.8 °F 23.2 °F 30.2 °F 87% 29.92 in 10.0 mi SSE 17.3 mph 25.3 mph N/A   Overcast
1:21 PM 33.8 °F 22.2 °F 30.2 °F 87% 29.92 in 10.0 mi SSE 20.7 mph 26.5 mph N/A   Overcast
1:53 PM 35.1 °F 24.8 °F 30.9 °F 85% 29.92 in 10.0 mi SSE 17.3 mph 27.6 mph N/A   Overcast
2:40 PM 35.6 °F 26.6 °F 33.8 °F 93% 29.91 in 10.0 mi SSE 13.8 mph - N/A   Overcast
2:53 PM 36.0 °F 26.3 °F 33.1 °F 89% 29.94 in 10.0 mi SSE 16.1 mph 24.2 mph N/A   Overcast
3:24 PM 37.4 °F 29.3 °F 33.8 °F 87% 29.91 in 9.0 mi SSE 12.7 mph 20.7 mph N/A   Overcast
3:44 PM 37.4 °F 28.5 °F 33.8 °F 87% 29.91 in 8.0 mi South 15.0 mph 20.7 mph N/A   Overcast
3:53 PM 37.0 °F 28.5 °F 34.0 °F 89% 29.94 in 8.0 mi SSE 13.8 mph - N/A   Overcast
4:38 PM 37.4 °F 29.8 °F 33.8 °F 87% 29.92 in 8.0 mi South 11.5 mph - N/A   Overcast
4:53 PM 37.9 °F 30.9 °F 35.1 °F 89% 29.95 in 8.0 mi South 10.4 mph - N/A   Overcast
5:53 PM 39.0 °F 31.8 °F 35.1 °F 86% 29.96 in 8.0 mi South 11.5 mph - N/A   Overcast
6:01 PM 39.2 °F 32.0 °F 35.6 °F 87% 29.94 in 8.0 mi South 11.5 mph - N/A   Overcast
6:53 PM 39.9 °F 32.5 °F 35.1 °F 83% 29.97 in 9.0 mi SSW 12.7 mph - N/A   Overcast
7:15 PM 39.2 °F 32.5 °F 33.8 °F 81% 29.95 in 10.0 mi SSW 10.4 mph 20.7 mph N/A   Overcast
7:53 PM 39.0 °F 31.0 °F 32.0 °F 76% 29.98 in 10.0 mi SSW 13.8 mph - N/A   Mostly Cloudy
8:53 PM 37.9 °F 30.9 °F 32.0 °F 79% 29.97 in 10.0 mi SW 10.4 mph - N/A   Overcast
9:30 PM 37.4 °F 32.1 °F 32.0 °F 81% 29.96 in 10.0 mi SW 6.9 mph - N/A   Overcast
9:50 PM 37.4 °F 31.4 °F 32.0 °F 81% 29.96 in 10.0 mi SSW 8.1 mph - N/A   Overcast
9:53 PM 37.9 °F 32.1 °F 32.0 °F 79% 29.98 in 10.0 mi SSW 8.1 mph - N/A   Overcast
10:53 PM 37.0 °F 29.3 °F 30.0 °F 76% 29.98 in 10.0 mi SW 11.5 mph - N/A   Overcast
11:27 PM 37.4 °F 30.8 °F 30.2 °F 75% 29.96 in 10.0 mi SW 9.2 mph - N/A   Overcast
11:53 PM 37.0 °F 31.6 °F 30.0 °F 76% 29.97 in 10.0 mi SW 6.9 mph - N/A   Overcast